"Pseudo-MPEC" for P112mmH

Created 2020 Jul 11 23:07:09 UT using Find_Orb

Click here for an explanation of pseudo-MPECs

 
 Astrometry: 
     P112mmH  C2020 07 01sOAstrometry:8k'qYcWMredacted;[O/Wl^fn6WrPwoYCWL,Q!CF51
     P112mmH  C2020 07 01m':kK.a-7pd).PRE-JO_@b\Q4h\jiZ7ptq;F%SMqF[HRZ/cnvPN:F51
     P112mmH  C2020 07 01?d^bDu2?mN?LPLi#Ci9EAMUC7#t=clickTH1M2piWE!PlOI?Zub7F51
     P112mmH  C2020 07 02rQ*LXMIIPCf^EQe2!TCGVsherem_vf?qN1CY;;_sB/Bs,b1R:wd;F51
     P112mmH  C2020 07 02Q-aZd!VP@'Y+$lG@Rtb;q5!YGforSMxqi)X_E8IFHT@OgL.YsNemF51
     P112mmH  C2020 07 026Zd\x'iK%anb?T-2WSZetdRFrfsQexplanation@jf+pH]w7.VR#F51
     P112mmH ^C2020 07 11.54208623 14 44.928-33 54 00.75   ~7BKM 21.01GVNEOCP568
     P112mmH ^C2020 07 11.54303623 14 45.002-33 54 01.37   ~7BKM 21.16GVNEOCP568
     P112mmH ^C2020 07 11.54398423 14 45.073-33 54 01.92   ~7BKM 21.18GVNEOCP568
     P112mmH ^C2020 07 11.54604323 14 45.232-33 54 03.40   ~7BKM 21.12GVNEOCP568

Station data:
(568) Mauna Kea  (N19.826116 W155.472200)  US/Hawaii.
(F51) Pan-STARRS 1, Haleakala  (N20.707235 W156.255910)  US/Hawaii.
   Observers N. Primak, A. Schultz, S. Watters, J. Thiel, T. Goggia. Measurer
   PS1 Science Consortium. 1.8-m Ritchey-Chrétien + CCD.

Orbital elements:  P112mmH
   Perihelion 2020 Sep 1.544094 +/- 1.41 TT = 13:03:29 (JD 2459094.044094)
Epoch 2020 Jul 11.0 TT = JDT 2459041.5   Earth MOID: 0.6899   AutoNEOCP
M 345.63804434 +/- 0.6              (J2000 ecliptic)
n   0.27333149 +/- 0.00454          Peri.  275.19660 +/- 1.0
a   2.35148891 +/- 0.026            Node    61.96520 +/- 0.32
e   0.3089310 +/- 0.00509           Incl.   14.03783 +/- 0.07
P   3.61                   H 19.5   G  0.15   U  9.1  
q 1.62504094 +/- 0.00588    Q 3.07793688 +/- 0.0448
From 10 observations 2020 July 1-11; mean residual 0".07
Residuals in arcseconds: 
200701 F51  .06+  .18+    200702 F51  .04+  .06+    200711 568  .01-  .07+    
200701 F51  .09-  .13-    200702 F51  .09-  .01+    200711 568  .04+  .05-    
200701 F51  .02+  .06-    200711 568  .03-  .01-    
200702 F51  .05+  .07-    200711 568  .00   .01-    

Ephemerides (geocentric):
Date (UTC) HH   RA              Dec         delta   r     elong  mag " sig PA
---- -- -- --  -------------   -----------  ------ ------ -----  --- ---- ---
2020 07 11 23  23 15 17.787   -33 58 23.48  .83471 1.6698 128.6 21.5 .231  56
2020 07 12 00  23 15 21.083   -33 58 50.67  .83446 1.6697 128.6 21.5 .248  54
2020 07 12 01  23 15 24.376   -33 59 17.88  .83421 1.6697 128.6 21.5 .266  53
2020 07 12 02  23 15 27.665   -33 59 45.10  .83396 1.6696 128.6 21.5 .284  51
2020 07 12 03  23 15 30.951   -34 00 12.33  .83372 1.6695 128.7 21.5 .302  50
2020 07 12 04  23 15 34.234   -34 00 39.58  .83347 1.6695 128.7 21.5 .321  49
2020 07 12 05  23 15 37.513   -34 01 06.84  .83322 1.6694 128.7 21.5 .340  48
2020 07 12 06  23 15 40.789   -34 01 34.12  .83298 1.6693 128.7 21.5 .359  47
2020 07 12 07  23 15 44.061   -34 02 01.41  .83273 1.6692 128.7 21.5 .379  46
2020 07 12 08  23 15 47.329   -34 02 28.71  .83248 1.6692 128.8 21.5 .398  45
2020 07 12 09  23 15 50.594   -34 02 56.03  .83224 1.6691 128.8 21.5 .418  44
2020 07 12 10  23 15 53.856   -34 03 23.36  .83199 1.6690 128.8 21.5 .438  44
2020 07 12 11  23 15 57.114   -34 03 50.70  .83175 1.6690 128.8 21.5 .459  43
2020 07 12 12  23 16 00.369   -34 04 18.06  .83150 1.6689 128.8 21.5 .479  43
2020 07 12 13  23 16 03.620   -34 04 45.43  .83126 1.6688 128.9 21.5 .500  42
2020 07 12 14  23 16 06.868   -34 05 12.82  .83101 1.6688 128.9 21.5 .521  42
2020 07 12 15  23 16 10.112   -34 05 40.21  .83077 1.6687 128.9 21.5 .542  41
2020 07 12 16  23 16 13.352   -34 06 07.63  .83052 1.6686 128.9 21.5 .563  41
2020 07 12 17  23 16 16.589   -34 06 35.05  .83028 1.6685 129.0 21.5 .585  40
2020 07 12 18  23 16 19.823   -34 07 02.49  .83003 1.6685 129.0 21.5 .607  40
2020 07 12 19  23 16 23.053   -34 07 29.94  .82979 1.6684 129.0 21.5 .629  40
2020 07 12 20  23 16 26.280   -34 07 57.41  .82955 1.6683 129.0 21.5 .651  39
2020 07 12 21  23 16 29.503   -34 08 24.89  .82930 1.6683 129.0 21.5 .673  39
2020 07 12 22  23 16 32.722   -34 08 52.38  .82906 1.6682 129.1 21.5 .696  39
2020 07 12 23  23 16 35.938   -34 09 19.89  .82882 1.6681 129.1 21.5 .718  39
2020 07 13 00  23 16 39.150   -34 09 47.41  .82857 1.6681 129.1 21.5 .741  38
2020 07 13 01  23 16 42.359   -34 10 14.94  .82833 1.6680 129.1 21.5 .764  38
2020 07 13 02  23 16 45.565   -34 10 42.48  .82809 1.6679 129.1 21.5 .788  38
2020 07 13 03  23 16 48.766   -34 11 10.04  .82784 1.6679 129.2 21.5 .811  38
2020 07 13 04  23 16 51.964   -34 11 37.62  .82760 1.6678 129.2 21.5 .835  38
2020 07 13 05  23 16 55.159   -34 12 05.20  .82736 1.6677 129.2 21.5 .858  37
2020 07 13 06  23 16 58.350   -34 12 32.80  .82712 1.6676 129.2 21.5 .882  37
2020 07 13 07  23 17 01.538   -34 13 00.41  .82688 1.6676 129.3 21.5 .906  37
2020 07 13 08  23 17 04.721   -34 13 28.04  .82663 1.6675 129.3 21.5 .931  37
2020 07 13 09  23 17 07.902   -34 13 55.67  .82639 1.6674 129.3 21.5 .955  37
2020 07 13 10  23 17 11.079   -34 14 23.33  .82615 1.6674 129.3 21.5 .980  37
2020 07 13 11  23 17 14.252   -34 14 50.99  .82591 1.6673 129.3 21.5 1.00  36
2020 07 13 12  23 17 17.421   -34 15 18.67  .82567 1.6672 129.4 21.4 1.03  36
2020 07 13 13  23 17 20.587   -34 15 46.36  .82543 1.6672 129.4 21.4 1.06  36
2020 07 13 14  23 17 23.750   -34 16 14.06  .82519 1.6671 129.4 21.4 1.08  36
2020 07 13 15  23 17 26.908   -34 16 41.78  .82495 1.6670 129.4 21.4 1.11  36
2020 07 13 16  23 17 30.063   -34 17 09.51  .82471 1.6670 129.4 21.4 1.13  36
2020 07 13 17  23 17 33.215   -34 17 37.25  .82447 1.6669 129.5 21.4 1.16  36
2020 07 13 18  23 17 36.363   -34 18 05.00  .82423 1.6668 129.5 21.4 1.18  36
2020 07 13 19  23 17 39.507   -34 18 32.77  .82399 1.6668 129.5 21.4 1.21  36
2020 07 13 20  23 17 42.648   -34 19 00.55  .82375 1.6667 129.5 21.4 1.24  36
2020 07 13 21  23 17 45.785   -34 19 28.34  .82351 1.6666 129.6 21.4 1.26  35
2020 07 13 22  23 17 48.918   -34 19 56.15  .82327 1.6666 129.6 21.4 1.29  35